Time,TemperatureF,DewpointF,PressureIn,WindDirection,WindDirectionDegrees,WindSpeedMPH,WindSpeedGustMPH,Humidity,HourlyPrecipIn,Conditions,Clouds,dailyrainin,SolarRadiationWatts/m^2,SoftwareType,DateUTC
2013-01-15 00:00:00,18.0,15.0,-100.00,NNW,337,0.0,-999.0,89,-99.99,,,-99.99,0.000000,,2013-01-15 05:00:00,
2013-01-15 00:42:00,18.0,15.0,-100.00,NNW,337,0.0,-999.0,89,-99.99,,,-99.99,0.000000,,2013-01-15 05:42:00,
2013-01-15 00:53:00,18.0,15.0,-100.00,NNW,337,0.0,-999.0,89,-99.99,,,-99.99,0.000000,,2013-01-15 05:53:00,
2013-01-15 01:00:00,18.0,16.0,-100.00,NNW,337,0.0,-999.0,90,-99.99,,,-99.99,0.000000,,2013-01-15 06:00:00,
2013-01-15 01:43:00,18.0,16.0,-100.00,NNW,337,0.0,-999.0,90,-99.99,,,-99.99,0.000000,,2013-01-15 06:43:00,
2013-01-15 01:53:00,18.0,16.0,-100.00,NNW,337,0.0,-999.0,90,-99.99,,,-99.99,0.000000,,2013-01-15 06:53:00,
2013-01-15 02:00:00,16.0,14.0,-100.00,NNW,337,0.0,-999.0,91,-99.99,,,-99.99,0.000000,,2013-01-15 07:00:00,
2013-01-15 02:43:00,16.0,14.0,-100.00,NNW,337,0.0,-999.0,91,-99.99,,,-99.99,0.000000,,2013-01-15 07:43:00,
2013-01-15 02:53:00,16.0,14.0,-100.00,NNW,337,0.0,-999.0,91,-99.99,,,-99.99,0.000000,,2013-01-15 07:53:00,
2013-01-15 03:00:00,17.0,15.0,-100.00,NNW,337,0.0,-999.0,91,-99.99,,,-99.99,0.000000,,2013-01-15 08:00:00,
2013-01-15 03:43:00,17.0,15.0,-100.00,NNW,337,0.0,-999.0,91,-99.99,,,-99.99,0.000000,,2013-01-15 08:43:00,
2013-01-15 03:53:00,17.0,15.0,-100.00,NNW,337,0.0,-999.0,91,-99.99,,,-99.99,0.000000,,2013-01-15 08:53:00,
2013-01-15 04:00:00,17.0,14.0,-100.00,NNW,337,0.0,-999.0,88,-99.99,,,-99.99,0.000000,,2013-01-15 09:00:00,
2013-01-15 04:43:00,17.0,14.0,-100.00,NNW,337,0.0,-999.0,88,-99.99,,,-99.99,0.000000,,2013-01-15 09:43:00,
2013-01-15 04:52:00,17.0,14.0,-100.00,NNW,337,0.0,-999.0,88,-99.99,,,-99.99,0.000000,,2013-01-15 09:52:00,
2013-01-15 05:00:00,16.0,13.0,-100.00,NNW,337,0.0,-999.0,89,-99.99,,,-99.99,0.000000,,2013-01-15 10:00:00,
2013-01-15 05:42:00,16.0,13.0,-100.00,NNW,337,0.0,-999.0,89,-99.99,,,-99.99,0.000000,,2013-01-15 10:42:00,
2013-01-15 05:52:00,16.0,13.0,-100.00,NNW,337,0.0,-999.0,89,-99.99,,,-99.99,0.000000,,2013-01-15 10:52:00,
2013-01-15 06:00:00,14.0,12.0,-100.00,NNW,337,0.0,-999.0,89,-99.99,,,-99.99,0.000000,,2013-01-15 11:00:00,
2013-01-15 06:43:00,14.0,12.0,-100.00,NNW,337,0.0,-999.0,89,-99.99,,,-99.99,0.000000,,2013-01-15 11:43:00,
2013-01-15 06:53:00,14.0,12.0,-100.00,NNW,337,0.0,-999.0,89,-99.99,,,-99.99,0.000000,,2013-01-15 11:53:00,
2013-01-15 07:00:00,14.0,12.0,-100.00,NNW,337,0.0,-999.0,91,-99.99,,,-99.99,0.000000,,2013-01-15 12:00:00,
2013-01-15 07:43:00,14.0,12.0,-100.00,NNW,337,0.0,-999.0,91,-99.99,,,-99.99,0.000000,,2013-01-15 12:43:00,
2013-01-15 07:53:00,14.0,12.0,-100.00,NNW,337,0.0,-999.0,91,-99.99,,,-99.99,0.000000,,2013-01-15 12:53:00,
2013-01-15 08:00:00,14.0,12.0,-100.00,NNW,337,0.0,-999.0,90,-99.99,,,-99.99,0.000000,,2013-01-15 13:00:00,
2013-01-15 08:33:00,14.0,12.0,-100.00,NNW,337,0.0,-999.0,90,-99.99,,,-99.99,0.000000,,2013-01-15 13:33:00,
2013-01-15 08:43:00,14.0,12.0,-100.00,NNW,337,0.0,-999.0,90,-99.99,,,-99.99,0.000000,,2013-01-15 13:43:00,
2013-01-15 08:53:00,14.0,12.0,-100.00,NNW,337,0.0,-999.0,90,-99.99,,,-99.99,0.000000,,2013-01-15 13:53:00,
2013-01-15 09:00:00,17.0,14.0,-100.00,NNW,337,0.0,-999.0,91,-99.99,,,-99.99,37.119999,,2013-01-15 14:00:00,
2013-01-15 09:43:00,17.0,14.0,-100.00,NNW,337,0.0,-999.0,91,-99.99,,,-99.99,37.119999,,2013-01-15 14:43:00,
2013-01-15 09:54:00,17.0,14.0,-100.00,NNW,337,0.0,-999.0,91,-99.99,,,-99.99,37.119999,,2013-01-15 14:54:00,
2013-01-15 10:00:00,23.0,19.0,-100.00,NNW,337,0.0,-999.0,86,-99.99,,,-99.99,155.440002,,2013-01-15 15:00:00,
2013-01-15 10:33:00,23.0,19.0,-100.00,NNW,337,0.0,-999.0,86,-99.99,,,-99.99,155.440002,,2013-01-15 15:33:00,
2013-01-15 10:43:00,23.0,19.0,-100.00,NNW,337,0.0,-999.0,86,-99.99,,,-99.99,155.440002,,2013-01-15 15:43:00,
2013-01-15 10:53:00,23.0,19.0,-100.00,NNW,337,0.0,-999.0,86,-99.99,,,-99.99,155.440002,,2013-01-15 15:53:00,
2013-01-15 11:00:00,25.0,18.0,-100.00,South,180,1.0,-999.0,73,-99.99,,,-99.99,299.279999,,2013-01-15 16:00:00,
2013-01-15 11:43:00,25.0,18.0,-100.00,South,180,1.0,-999.0,73,-99.99,,,-99.99,299.279999,,2013-01-15 16:43:00,
2013-01-15 11:53:00,25.0,18.0,-100.00,South,180,1.0,-999.0,73,-99.99,,,-99.99,299.279999,,2013-01-15 16:53:00,
2013-01-15 12:00:00,27.0,17.0,-100.00,ESE,112,3.0,-999.0,67,-99.99,,,-99.99,371.200012,,2013-01-15 17:00:00,
2013-01-15 12:43:00,27.0,17.0,-100.00,ESE,112,3.0,-999.0,67,-99.99,,,-99.99,371.200012,,2013-01-15 17:43:00,
2013-01-15 12:53:00,27.0,17.0,-100.00,ESE,112,3.0,-999.0,67,-99.99,,,-99.99,371.200012,,2013-01-15 17:53:00,
2013-01-15 13:00:00,29.0,17.0,-100.00,ESE,112,3.0,-999.0,61,-99.99,,,-99.99,440.799988,,2013-01-15 18:00:00,
2013-01-15 13:43:00,29.0,17.0,-100.00,ESE,112,3.0,-999.0,61,-99.99,,,-99.99,440.799988,,2013-01-15 18:43:00,
2013-01-15 13:54:00,29.0,17.0,-100.00,ESE,112,3.0,-999.0,61,-99.99,,,-99.99,440.799988,,2013-01-15 18:54:00,
2013-01-15 14:00:00,29.0,17.0,-100.00,SE,135,3.0,-999.0,61,-99.99,,,-99.99,302.760010,,2013-01-15 19:00:00,
2013-01-15 14:43:00,29.0,17.0,-100.00,SE,135,3.0,-999.0,61,-99.99,,,-99.99,302.760010,,2013-01-15 19:43:00,
2013-01-15 14:53:00,29.0,17.0,-100.00,SE,135,3.0,-999.0,61,-99.99,,,-99.99,302.760010,,2013-01-15 19:53:00,
2013-01-15 15:00:00,29.0,16.0,-100.00,SE,135,3.0,-999.0,58,-99.99,,,-99.99,256.359985,,2013-01-15 20:00:00,
2013-01-15 15:44:00,29.0,16.0,-100.00,SE,135,3.0,-999.0,58,-99.99,,,-99.99,256.359985,,2013-01-15 20:44:00,
2013-01-15 15:53:00,29.0,16.0,-100.00,SE,135,3.0,-999.0,58,-99.99,,,-99.99,256.359985,,2013-01-15 20:53:00,
2013-01-15 16:00:00,29.0,18.0,-100.00,SE,135,4.0,-999.0,63,-99.99,,,-99.99,155.440002,,2013-01-15 21:00:00,
2013-01-15 16:43:00,29.0,18.0,-100.00,SE,135,4.0,-999.0,63,-99.99,,,-99.99,155.440002,,2013-01-15 21:43:00,
2013-01-15 16:53:00,29.0,18.0,-100.00,SE,135,4.0,-999.0,63,-99.99,,,-99.99,155.440002,,2013-01-15 21:53:00,
2013-01-15 17:00:00,27.0,18.0,-100.00,SSE,157,6.0,-999.0,67,-99.99,,,-99.99,35.959999,,2013-01-15 22:00:00,
2013-01-15 17:43:00,27.0,18.0,-100.00,SSE,157,6.0,-999.0,67,-99.99,,,-99.99,35.959999,,2013-01-15 22:43:00,
2013-01-15 17:53:00,27.0,18.0,-100.00,SSE,157,6.0,-999.0,67,-99.99,,,-99.99,35.959999,,2013-01-15 22:53:00,
2013-01-15 18:00:00,27.0,17.0,-100.00,SSE,157,5.0,-999.0,66,-99.99,,,-99.99,3.480000,,2013-01-15 23:00:00,
2013-01-15 18:43:00,27.0,17.0,-100.00,SSE,157,5.0,-999.0,66,-99.99,,,-99.99,3.480000,,2013-01-15 23:43:00,
2013-01-15 18:53:00,27.0,17.0,-100.00,SSE,157,5.0,-999.0,66,-99.99,,,-99.99,3.480000,,2013-01-15 23:53:00,
2013-01-15 19:00:00,26.0,17.0,-100.00,SE,135,1.0,-999.0,69,-99.99,,,-99.99,0.000000,,2013-01-16 00:00:00,
2013-01-15 19:43:00,26.0,17.0,-100.00,SE,135,1.0,-999.0,69,-99.99,,,-99.99,0.000000,,2013-01-16 00:43:00,
2013-01-15 19:53:00,26.0,17.0,-100.00,SE,135,1.0,-999.0,69,-99.99,,,-99.99,0.000000,,2013-01-16 00:53:00,
2013-01-15 20:00:00,26.0,17.0,-100.00,SSE,157,0.0,-999.0,70,-99.99,,,-99.99,0.000000,,2013-01-16 01:00:00,
2013-01-15 20:43:00,26.0,17.0,-100.00,SSE,157,0.0,-999.0,70,-99.99,,,-99.99,0.000000,,2013-01-16 01:43:00,
2013-01-15 20:53:00,26.0,17.0,-100.00,SSE,157,0.0,-999.0,70,-99.99,,,-99.99,0.000000,,2013-01-16 01:53:00,
2013-01-15 21:00:00,26.0,17.0,-100.00,ESE,112,1.0,-999.0,68,-99.99,,,-99.99,0.000000,,2013-01-16 02:00:00,
2013-01-15 21:43:00,26.0,17.0,-100.00,ESE,112,1.0,-999.0,68,-99.99,,,-99.99,0.000000,,2013-01-16 02:43:00,
2013-01-15 21:53:00,26.0,17.0,-100.00,ESE,112,1.0,-999.0,68,-99.99,,,-99.99,0.000000,,2013-01-16 02:53:00,
2013-01-15 22:00:00,26.0,17.0,-100.00,East,90,1.0,-999.0,69,-99.99,,,-99.99,0.000000,,2013-01-16 03:00:00,
2013-01-15 22:43:00,26.0,17.0,-100.00,East,90,1.0,-999.0,69,-99.99,,,-99.99,0.000000,,2013-01-16 03:43:00,
2013-01-15 22:53:00,26.0,17.0,-100.00,East,90,1.0,-999.0,69,-99.99,,,-99.99,0.000000,,2013-01-16 03:53:00,
2013-01-15 23:00:00,25.0,18.0,-100.00,East,90,1.0,-999.0,73,-99.99,,,-99.99,0.000000,,2013-01-16 04:00:00,
2013-01-15 23:42:00,25.0,18.0,-100.00,East,90,1.0,-999.0,73,-99.99,,,-99.99,0.000000,,2013-01-16 04:42:00,
2013-01-15 23:53:00,25.0,18.0,-100.00,East,90,1.0,-999.0,73,-99.99,,,-99.99,0.000000,,2013-01-16 04:53:00,